10.05.2024;14:00;12
10.05.2024;13:00;12
10.05.2024;12:00;12
10.05.2024;11:00;12
10.05.2024;10:00;12
10.05.2024;09:00;11
10.05.2024;08:00;10
10.05.2024;07:00;10
10.05.2024;06:00;9
10.05.2024;05:00;9
10.05.2024;04:00;9
10.05.2024;03:00;9
10.05.2024;02:00;9
10.05.2024;01:00;9
10.05.2024;00:00;9
09.05.2024;23:00;9
09.05.2024;22:00;8
09.05.2024;21:00;8
09.05.2024;20:00;8
09.05.2024;19:00;8
09.05.2024;18:00;8
09.05.2024;17:00;8
09.05.2024;16:00;8
09.05.2024;15:00;8
09.05.2024;14:00;8
09.05.2024;13:00;9
09.05.2024;12:00;9
09.05.2024;11:00;9
09.05.2024;10:00;9
09.05.2024;09:00;9
09.05.2024;08:00;9
09.05.2024;07:00;9
09.05.2024;06:00;9
09.05.2024;05:00;9
09.05.2024;04:00;9
09.05.2024;03:00;10
09.05.2024;02:00;10
09.05.2024;01:00;11
09.05.2024;00:00;12
08.05.2024;23:00;12
08.05.2024;22:00;13
08.05.2024;21:00;14
08.05.2024;20:00;14
08.05.2024;19:00;15
08.05.2024;18:00;15
08.05.2024;17:00;15
08.05.2024;16:00;15
08.05.2024;15:00;15
